Regional Weather Roundup
Issued by NWS

Home | Current Version | Previous Version | Text Only | Print | Product List | Glossary On
Versions: 1 2 3 4 5 6 7 8 9 10 11 12 13 14 15 16 17 18 19 20 21 22 23 24 25 26 27 28 29 30 31 32 33 34 35 36 37 38 39 40 41 42 43 44 45 46 47 48 49 50
000
ASUS43 KDTX 292010
RWRMI
MICHIGAN HOURLY REGIONAL WEATHER ROUNDUP
NATIONAL WEATHER SERVICE DETROIT/PONTIAC MI
400 PM EDT FRI APR 29 2016

NOTE: "FAIR" INDICATES FEW OR NO CLOUDS BELOW 12,000 FEET WITH NO
SIGNIFICANT WEATHER AND/OR OBSTRUCTION TO VISIBILITY.

MIZ047>049-052>055-059>063-066>070-074>076-081>083-292100-
SOUTHEAST LOWER MICHIGAN

CITY           SKY/WX    TMP DP  RH WIND       PRES   REMARKS
ADRIAN         CLOUDY    54  40  59 NE8       30.06F
ALMA           CLOUDY    49  38  64 NE10      30.12F
ANN ARBOR      CLOUDY    50  38  63 E7        30.08S
BAD AXE        PTSUNNY   52  32  46 NE9       30.12R
CARO           CLOUDY    50  38  64 CALM      30.11S
DETROIT CITY   CLOUDY    50  35  56 N6        30.10F
DETROIT        CLOUDY    49  37  63 N9        30.10S
FLINT          CLOUDY    52  37  56 NE9       30.11F
GROSSE ILE     CLOUDY    48  39  71 N8        30.09R
HILLSDALE      CLOUDY    53  41  64 N6        30.05F
HOWELL         CLOUDY    49  39  66 NE7       30.08F

CITY           SKY/WX    TMP DP  RH WIND       PRES   REMARKS
JACKSON        CLOUDY    52  38  58 N8        30.07S
LAMBERTVILLE   PTSUNNY   54  42  64 E8        30.07F
LANSING        PTSUNNY   50  39  66 E12       30.09F
LAPEER         CLOUDY    48  36  61 NE6       30.11S
MASON          CLOUDY    49  40  70 NE8       30.08S
MONROE         CLOUDY    50  39  66 NE3       30.08S
MT. CLEMENS    CLOUDY    51  37  59 NE9       30.08S
PONTIAC        CLOUDY    50  38  63 NE9G16    30.08F
PORT HOPE        N/A     44  37  76 N5        30.12S
PORT HURON     CLOUDY    46  30  53 NE7       30.11R
TRI CITIES     CLOUDY    50  34  54 SE6       30.15R
MIDLAND        CLOUDY    50  33  52 CALM      30.14R
TROY           CLOUDY    51  37  57 N8G16     30.11F
SAGINAW HB     CLOUDY    46  37  71 S3        30.15R
$$
MIZ043>046-050>051-056>058-064>065-071>073-077>080-292100-
SOUTHWEST LOWER MICHIGAN

CITY           SKY/WX    TMP DP  RH WIND       PRES   REMARKS
BATTLE CREEK   PTSUNNY   53  39  59 NE10G17   30.07F
BENTON HARBOR  CLOUDY    48  42  80 NW6       30.09R
BIG RAPIDS     CLOUDY    53  29  39 E5        30.10F
COLDWATER      CLOUDY    54  42  63 N3        30.06S
FREMONT        FAIR      51  37  59 NE3       30.09F
HOLLAND        MOSUNNY   54  41  61 NE8       30.09R
GRAND RAPIDS   PTSUNNY   51  39  63 E8        30.10S
IONIA          PTSUNNY   50  40  69 NE13G18   30.08F
KALAMAZOO      CLOUDY    53  39  59 CALM      30.08F
LUDINGTON      SUNNY     49  37  62 NW13      30.13F
MARSHALL       CLOUDY    52  40  64 N6        30.06F
MOUNT PLEASANT CLOUDY    52  36  53 NE9       30.12R
MUSKEGON       PTSUNNY   53  38  56 E9        30.10S
SOUTH HAVEN    CLOUDY    49  42  78 NW7       30.08S
$$
MIZ016>042-292100-
NORTHERN LOWER MICHIGAN

CITY           SKY/WX    TMP DP  RH WIND       PRES   REMARKS
ALPENA         SUNNY     54  30  40 VRB7      30.15R
BEAVER ISLAND  SUNNY     55  28  34 E9        30.15R
BELLAIRE       PTSUNNY   61  26  27 E7        30.11R
CADILLAC       PTSUNNY   57  33  39 E9        30.08S
CHARLEVOIX     SUNNY     49  34  55 NW10      30.16R
FRANKFORT      SUNNY     52  35  52 N13G22    30.12R
GAYLORD        CLOUDY    54  28  36 E3        30.12R
HARBOR SPRINGS SUNNY     56  28  35 SE8       30.13R
HOUGHTON LAKE  CLOUDY    56  31  38 S10       30.11R
MANISTEE       SUNNY     48  34  57 NW9G17    30.13S
OSCODA         CLOUDY    48  30  50 E8        30.14R
PELLSTON       SUNNY     56  27  32 NE6G18    30.14R
ROGERS CITY    SUNNY     48  29  46 E6        30.15F
TRAVERSE CITY  MOSUNNY   57  30  35 N12       30.10R
$$
MIZ007>008-015-292100-
EASTERN UPPER MICHIGAN

CITY           SKY/WX    TMP DP  RH WIND       PRES   REMARKS
KINROSS          N/A     55  28  35 NE3       30.11S
MACKINAC ISLAN MOSUNNY   51  28  41 S5        30.14R
NEWBERRY       SUNNY     56  31  38 CALM      30.12R
S. S. MARIE    SUNNY     57  30  35 VRB7      30.10R
MUNISING         N/A     46  35  65 NE6       30.17R
$$
MIZ004>006-011>014-085-292100-
CENTRAL UPPER MICHIGAN

CITY           SKY/WX    TMP DP  RH WIND       PRES   REMARKS
MANISTIQUE     SUNNY     52  27  38 S7        30.14S
ESCANABA       MOSUNNY   52  25  35 S14       30.15S
MENOMINEE      CLOUDY    52  21  30 E8        30.16S
SAWYER-GWINN   MOSUNNY   50  27  40 NE10      30.16S
$$
MIZ001>003-009>011-084-292100-
WESTERN UPPER MICHIGAN

CITY           SKY/WX    TMP DP  RH WIND       PRES   REMARKS
IRON MOUNTAIN  CLOUDY    57  24  28 S6        30.11F
HOUGHTON       CLOUDY    51  32  48 SE13      30.16R
COPPER HARBOR    N/A     43  36  76 NE5       30.19R
IRONWOOD         N/A     48  34  57 N12       30.14F
$$

ABBREVIATIONS USED IN REMARKS
   TC - TEMPERATURE IN CELSIUS
  WCI - WIND CHILL INDEX
   HX - HEAT INDEX
  VSB - VISIBILITY




USA.gov is the U.S. government's official web portal to all federal, state and local government web resources and services.